GW2413 Weather Reports


time (UTC)temp
C
wind
direction
speed
KPH
gust
KPH
rain 1hr
cm
rain 24hr
cm
rain mn
cm
humidity
%
barometer
mb
20260507130636 12 113 1.6 1.6 0.00 0.41 0.41 65 1012.9
20260507130134 12 83 0.0 1.6 0.00 0.41 0.41 65 1012.7
20260507125633 12 86 0.0 0.0 0.00 0.41 0.41 65 1012.9
20260507125130 12 82 0.0 0.0 0.00 0.41 0.41 66 1013.0
20260507124626 12 48 1.6 1.6 0.00 0.41 0.41 64 1012.7
20260507124124 12 76 0.0 0.0 0.00 0.41 0.41 65 1012.8
20260507123622 12 89 6.4 9.7 0.00 0.41 0.41 65 1012.7
20260507123119 12 37 0.0 1.6 0.00 0.41 0.41 68 1012.8
20260507122614 12 131 1.6 1.6 0.00 0.41 0.41 68 1012.8
20260507122110 12 20 0.0 1.6 0.00 0.41 0.41 70 1012.8
20260507121606 12 88 1.6 1.6 0.00 0.41 0.41 74 1012.7
20260507121102 12 85 1.6 1.6 0.00 0.41 0.41 77 1012.8
20260507120558 12 221 4.8 8.0 0.00 0.41 0.41 80 1012.7
20260507120055 12 136 0.0 0.0 0.00 0.41 0.41 85 1012.9
20260507115551 12 80 0.0 1.6 0.00 0.41 0.41 88 1012.4
20260507115048 12 114 0.0 0.0 0.00 0.41 0.41 88 1012.7
20260507114543 12 89 0.0 0.0 0.00 0.41 0.41 88 1012.5
20260507114041 12 74 0.0 0.0 0.00 0.41 0.41 89 1012.3
20260507113538 12 107 3.2 3.2 0.00 0.41 0.41 88 1012.2
20260507113035 12 97 1.6 1.6 0.00 0.41 0.41 89 1012.2
20260507112533 12 88 0.0 0.0 0.00 0.41 0.41 89 1012.2
20260507112029 12 85 0.0 0.0 0.00 0.41 0.41 89 1012.5
20260507111527 12 88 0.0 0.0 0.00 0.41 0.41 90 1012.4
20260507111023 12 92 0.0 0.0 0.00 0.41 0.41 90 1012.2
20260507110520 12 89 0.0 0.0 0.00 0.41 0.41 90 1012.0
20260507110016 12 86 3.2 3.2 0.00 0.41 0.41 90 1012.0
20260507105513 12 76 0.0 0.0 0.00 0.41 0.41 90 1012.3
20260507105009 12 354 0.0 1.6 0.00 0.41 0.41 91 1012.0
20260507104507 12 82 0.0 0.0 0.00 0.41 0.41 90 1012.0
20260507104003 12 73 0.0 0.0 0.00 0.41 0.41 90 1012.1
20260507103459 12 87 0.0 0.0 0.00 0.41 0.41 90 1011.9
20260507102955 12 88 0.0 0.0 0.00 0.41 0.41 91 1012.0
20260507102452 12 84 0.0 0.0 0.00 0.41 0.41 91 1011.9
20260507101948 12 102 0.0 0.0 0.00 0.41 0.41 91 1011.7
20260507101443 12 80 0.0 0.0 0.00 0.41 0.41 92 1011.7
20260507100940 12 74 0.0 0.0 0.00 0.41 0.41 92 1011.6
20260507100438 12 75 0.0 0.0 0.00 0.41 0.41 92 1011.5
20260507095936 12 76 0.0 0.0 0.00 0.41 0.41 92 1011.6
20260507095433 12 11 0.0 0.0 0.00 0.41 0.41 92 1011.6
20260507094930 12 78 0.0 0.0 0.18 0.41 0.41 92 1011.6
20260507094426 12 97 0.0 0.0 0.18 0.41 0.41 92 1011.7
20260507093923 12 78 0.0 0.0 0.00 0.38 0.38 92 1011.7
20260507093421 12 81 0.0 0.0 0.00 0.38 0.38 93 1011.6
20260507092920 12 83 0.0 0.0 0.00 0.38 0.38 93 1011.7
20260507092415 12 82 0.0 0.0 0.00 0.38 0.38 93 1011.5
20260507091912 12 77 0.0 0.0 0.00 0.38 0.38 93 1011.3
20260507091408 12 91 0.0 0.0 0.00 0.38 0.38 93 1011.4
20260507090904 12 85 0.0 0.0 0.00 0.38 0.38 93 1011.5
20260507090401 12 80 0.0 0.0 0.00 0.38 0.38 93 1011.5
20260507085858 12 85 0.0 0.0 0.00 0.38 0.38 94 1011.5
20260507085354 12 81 0.0 0.0 0.00 0.38 0.38 94 1011.5
20260507084852 12 81 0.0 0.0 0.00 0.38 0.38 94 1011.3
20260507084348 12 79 0.0 0.0 0.00 0.38 0.38 94 1011.5
20260507083846 12 82 0.0 0.0 0.00 0.38 0.38 93 1011.1
20260507083342 12 88 0.0 0.0 0.00 0.38 0.38 93 1011.7
20260507082838 12 82 0.0 0.0 0.00 0.38 0.38 93 1011.5
20260507082334 12 82 0.0 0.0 0.00 0.38 0.38 93 1011.4
20260507081831 12 87 0.0 0.0 0.00 0.38 0.38 93 1011.4
20260507081327 12 72 0.0 0.0 0.00 0.38 0.38 92 1011.3
20260507080824 -17 0.0 0.0 0.00 0.00 0.00 1011.1
20260507080320 -17 0.0 0.0 0.00 0.00 0.00 1010.7
20260507075815 12 87 0.0 0.0 0.00 0.38 0.38 91 1010.7
20260507075312 12 87 0.0 0.0 0.00 0.38 0.38 91 1010.9
20260507074809 12 56 0.0 0.0 0.00 0.38 0.38 91 1010.9
20260507074306 12 168 3.2 3.2 0.00 0.38 0.38 90 1011.0
20260507073803 12 60 3.2 3.2 0.00 0.38 0.38 90 1010.6
20260507073300 12 95 0.0 0.0 0.00 0.38 0.38 90 1010.6
20260507072757 12 15 4.8 4.8 0.00 0.38 0.38 91 1010.3
20260507072254 12 87 0.0 1.6 0.00 0.38 0.38 91 1010.6
20260507071752 12 74 0.0 1.6 0.00 0.38 0.38 92 1010.7
20260507071248 12 186 0.0 1.6 0.00 0.38 0.38 92 1010.5
20260507070745 12 343 4.8 8.0 0.00 0.38 0.38 92 1010.3
20260507070242 12 164 0.0 0.0 0.00 0.38 0.38 93 1010.4
20260507065738 12 76 0.0 0.0 0.00 0.38 0.38 93 1010.6
20260507065235 12 80 0.0 0.0 0.00 0.38 0.38 93 1010.7
20260507064733 12 77 0.0 0.0 0.00 0.38 0.38 93 1010.3
20260507064232 12 72 0.0 1.6 0.00 0.38 0.38 93 1010.6
20260507063728 12 83 0.0 0.0 0.00 0.38 0.38 93 1010.4
20260507063225 12 83 1.6 3.2 0.00 0.38 0.38 93 1010.3
20260507062722 12 90 0.0 1.6 0.00 0.38 0.38 93 1010.4
20260507062220 12 30 3.2 3.2 0.00 0.38 0.38 93 1010.7
20260507061717 12 72 3.2 4.8 0.00 0.38 0.38 93 1010.2
20260507061215 13 41 1.6 1.6 0.00 0.38 0.38 93 1010.3
20260507060713 13 80 1.6 1.6 0.00 0.38 0.38 93 1010.4
20260507060209 13 73 1.6 1.6 0.00 0.38 0.38 93 1010.4
20260507055705 13 38 0.0 0.0 0.13 0.38 0.38 93 1009.9
20260507055201 13 53 0.0 0.0 0.13 0.38 0.38 93 1010.2
20260507054657 13 91 0.0 0.0 0.00 0.36 0.36 93 1010.3
20260507054154 13 84 0.0 0.0 0.18 0.36 0.36 93 1010.2
20260507053652 13 75 1.6 1.6 0.18 0.36 0.36 93 1010.7
20260507053150 13 82 0.0 0.0 0.13 0.33 0.33 93 1010.7
20260507052648 13 79 0.0 0.0 0.13 0.33 0.33 93 1010.3
20260507052144 13 102 0.0 0.0 0.00 0.30 0.30 93 1010.6
20260507051642 13 84 0.0 0.0 0.00 0.30 0.30 93 1010.0
20260507051138 13 125 0.0 0.0 0.18 0.30 0.30 93 1010.4
20260507050636 14 75 0.0 1.6 0.18 0.30 0.30 93 1010.7
20260507050132 14 89 0.0 0.0 0.00 0.28 0.28 93 1010.9
20260507045629 14 77 0.0 0.0 0.00 0.28 0.28 93 1010.4
20260507045126 14 88 0.0 0.0 0.00 0.28 0.28 93 1010.7
20260507044623 14 96 0.0 0.0 0.13 0.28 0.28 92 1010.5
20260507044120 14 82 0.0 0.0 0.43 0.28 0.28 92 1011.0
20260507043615 14 186 1.6 1.6 0.79 0.25 0.25 91 1010.4
20260507043113 15 98 3.2 3.2 0.79 0.20 0.20 89 1010.5
20260507042609 15 97 0.0 0.0 0.79 0.13 0.13 86 1011.0
20260507042104 15 95 0.0 0.0 0.48 0.08 0.08 84 1010.7
20260507041601 16 82 0.0 0.0 0.30 0.05 0.05 81 1010.4
20260507041058 16 101 1.6 1.6 0.00 0.00 0.00 78 1010.8
20260507040555 16 62 1.6 1.6 0.00 0.00 0.00 77 1010.3
20260507040051 16 62 1.6 1.6 0.00 0.00 0.00 78 1010.6
20260507035547 16 124 0.0 1.6 0.00 0.69 0.69 77 1010.3
20260507035043 16 338 0.0 1.6 0.00 0.69 0.69 78 1010.4
20260507034540 17 129 0.0 0.0 0.00 0.69 0.69 77 1010.1
20260507034038 17 294 3.2 3.2 0.00 0.69 0.69 76 1010.4
20260507033536 17 90 1.6 3.2 0.00 0.69 0.69 74 1010.3
20260507033033 17 359 1.6 1.6 0.00 0.69 0.69 74 1010.2
20260507032530 17 118 3.2 4.8 0.00 0.69 0.69 76 1010.2
20260507032026 17 53 1.6 1.6 0.00 0.69 0.69 78 1010.0
20260507031522 17 175 0.0 0.0 0.00 0.69 0.69 78 1009.9
20260507031020 17 33 1.6 1.6 0.00 0.69 0.69 78 1010.0
20260507030516 18 50 1.6 1.6 0.00 0.69 0.69 79 1009.4
20260507030015 18 80 0.0 0.0 0.00 0.69 0.69 79 1009.5
20260507025511 18 42 3.2 3.2 0.00 0.69 0.69 79 1009.7
20260507025008 18 50 4.8 4.8 0.00 0.69 0.69 79 1009.7
20260507024506 18 77 3.2 3.2 0.00 0.69 0.69 80 1009.7
20260507024002 18 117 1.6 1.6 0.00 0.69 0.69 81 1009.5
20260507023458 18 79 1.6 1.6 0.00 0.69 0.69 81 1009.5
20260507022956 18 333 4.8 4.8 0.00 0.69 0.69 82 1009.3
20260507022453 19 60 0.0 0.0 0.00 0.69 0.69 83 1009.4
20260507021948 19 320 8.0 11.3 0.00 0.69 0.69 83 1009.0
20260507021444 19 82 0.0 1.6 0.00 0.69 0.69 84 1008.9
20260507020941 19 56 0.0 0.0 0.00 0.69 0.69 84 1009.0
20260507020438 20 88 0.0 1.6 0.00 0.69 0.69 84 1009.0
20260507015935 20 115 0.0 1.6 0.00 0.69 0.69 83 1009.2
20260507015433 20 85 0.0 0.0 0.00 0.69 0.69 84 1008.8
20260507014930 20 105 0.0 0.0 0.00 0.69 0.69 84 1008.8
20260507014427 19 103 0.0 0.0 0.00 0.69 0.69 84 1009.2
20260507013923 19 98 0.0 1.6 0.00 0.69 0.69 85 1009.1
20260507013420 19 88 0.0 0.0 0.00 0.69 0.69 85 1009.0
20260507012918 19 88 0.0 0.0 0.00 0.69 0.69 85 1009.0
20260507012414 19 89 0.0 0.0 0.00 0.69 0.69 85 1009.2
20260507011910 19 90 0.0 0.0 0.00 0.69 0.69 85 1009.3
20260507011407 19 90 0.0 0.0 0.00 0.69 0.69 85 1009.3
20260507010902 19 90 0.0 0.0 0.00 0.69 0.69 85 1009.4
20260507010357 19 90 0.0 0.0 0.00 0.69 0.69 85 1009.4
20260507005855 19 89 0.0 0.0 0.00 0.69 0.69 85 1009.4
20260507005351 19 89 0.0 0.0 0.00 0.69 0.69 85 1009.4
20260507004848 19 89 0.0 0.0 0.00 0.69 0.69 85 1009.1
20260507004345 19 90 0.0 0.0 0.00 0.69 0.69 84 1009.1
20260507003842 19 89 0.0 0.0 0.00 0.69 0.69 84 1009.0
20260507003338 19 98 0.0 0.0 0.00 0.69 0.69 84 1009.3
20260507002833 19 95 0.0 0.0 0.00 0.69 0.69 84 1009.2
20260507002329 19 94 0.0 0.0 0.00 0.69 0.69 83 1009.1
20260507001827 20 92 0.0 0.0 0.00 0.69 0.69 83 1009.1
20260507001323 20 87 0.0 0.0 0.00 0.69 0.69 82 1008.8
20260507000820 20 89 0.0 0.0 0.00 0.69 0.69 81 1008.8
20260507000315 20 87 0.0 0.0 0.00 0.69 0.69 81 1008.8
20260506235812 20 90 0.0 0.0 0.00 0.69 0.69 80 1008.8
20260506235308 20 93 0.0 0.0 0.00 0.69 0.69 80 1008.5
20260506234805 20 84 0.0 0.0 0.00 0.69 0.69 80 1008.6
20260506234303 20 118 0.0 0.0 0.00 0.69 0.69 79 1008.5
20260506233800 20 107 1.6 1.6 0.00 0.69 0.69 79 1008.5
20260506233256 20 103 0.0 0.0 0.00 0.69 0.69 79 1008.2
20260506232753 20 110 0.0 0.0 0.00 0.69 0.69 79 1008.4
20260506232248 20 145 0.0 1.6 0.00 0.69 0.69 79 1008.2
20260506231745 20 99 0.0 0.0 0.00 0.69 0.69 79 1008.3
20260506231244 20 264 3.2 3.2 0.00 0.69 0.69 79 1008.4
20260506230740 20 106 0.0 1.6 0.00 0.69 0.69 79 1008.1
20260506230237 20 105 0.0 0.0 0.00 0.69 0.69 79 1008.2
20260506225733 20 160 1.6 1.6 0.00 0.69 0.69 78 1008.2
20260506225231 20 224 3.2 4.8 0.00 0.69 0.69 78 1008.2
20260506224727 20 115 0.0 0.0 0.00 0.69 0.69 78 1008.2
20260506224225 20 273 4.8 8.0 0.00 0.69 0.69 77 1008.0
20260506223721 20 89 1.6 3.2 0.00 0.69 0.69 77 1008.0
20260506223216 21 100 1.6 3.2 0.00 0.69 0.69 77 1008.0
20260506222713 21 255 8.0 11.3 0.00 0.69 0.69 76 1008.2
20260506222208 21 243 1.6 3.2 0.00 0.69 0.69 77 1008.1
20260506221707 21 130 1.6 3.2 0.00 0.69 0.69 77 1008.2
20260506221205 21 104 1.6 3.2 0.00 0.69 0.69 77 1008.1
20260506220701 21 104 0.0 0.0 0.00 0.69 0.69 77 1008.0
20260506220156 21 114 1.6 1.6 0.00 0.69 0.69 78 1008.2
20260506215653 20 131 4.8 4.8 0.00 0.69 0.69 77 1008.0
20260506215148 20 97 0.0 0.0 0.00 0.69 0.69 78 1008.1
20260506214646 20 20 0.0 0.0 0.00 0.69 0.69 77 1008.2
20260506214143 20 110 6.4 9.7 0.00 0.69 0.69 77 1007.9
20260506213641 21 113 3.2 4.8 0.00 0.69 0.69 76 1008.1
20260506213138 21 163 4.8 4.8 0.00 0.69 0.69 76 1008.2
20260506212636 20 318 3.2 4.8 0.00 0.69 0.69 77 1008.1
20260506212130 20 263 3.2 3.2 0.00 0.69 0.69 78 1008.2
20260506211626 21 275 4.8 9.7 0.00 0.69 0.69 77 1008.3
20260506211123 21 136 4.8 8.0 0.00 0.69 0.69 76 1008.1
20260506210620 21 181 6.4 9.7 0.00 0.69 0.69 76 1008.0
20260506210116 21 247 9.7 12.9 0.00 0.69 0.69 75 1007.9
20260506205613 20 240 3.2 4.8 0.00 0.69 0.69 77 1007.8
20260506205108 21 177 3.2 3.2 0.00 0.69 0.69 76 1007.7
20260506204607 21 239 1.6 3.2 0.00 0.69 0.69 76 1007.7
20260506204103 21 113 0.0 1.6 0.00 0.69 0.69 77 1007.6
20260506203602 21 243 6.4 8.0 0.00 0.69 0.69 76 1007.8
20260506203058 21 107 1.6 1.6 0.00 0.69 0.69 77 1007.9
20260506202556 21 190 4.8 4.8 0.00 0.69 0.69 76 1008.2
20260506202052 20 125 1.6 1.6 0.00 0.69 0.69 77 1007.9
20260506201549 20 157 3.2 3.2 0.00 0.69 0.69 77 1007.8
20260506201046 20 212 6.4 8.0 0.00 0.69 0.69 77 1007.9
20260506200542 20 116 3.2 3.2 0.00 0.69 0.69 78 1008.2
20260506200039 20 254 4.8 9.7 0.00 0.69 0.69 78 1008.1
20260506195535 20 217 6.4 12.9 0.00 0.69 0.69 78 1008.0
20260506195032 20 278 4.8 4.8 0.00 0.69 0.69 77 1008.0
20260506194530 20 240 4.8 9.7 0.00 0.69 0.69 77 1008.1
20260506194026 20 258 3.2 4.8 0.00 0.69 0.69 78 1008.0
20260506193523 20 74 3.2 3.2 0.00 0.69 0.69 78 1007.9
20260506193020 20 222 8.0 11.3 0.00 0.69 0.69 78 1008.1
20260506192517 20 257 8.0 9.7 0.00 0.69 0.69 78 1008.0
20260506192013 20 268 3.2 3.2 0.00 0.69 0.69 79 1008.4
20260506191510 20 104 1.6 1.6 0.00 0.69 0.69 79 1008.1
20260506191006 20 102 9.7 12.9 0.00 0.69 0.69 79 1008.5
20260506190503 20 153 3.2 3.2 0.00 0.69 0.69 79 1008.7
20260506190000 20 119 0.0 0.0 0.00 0.69 0.69 80 1008.6
20260506185458 20 111 1.6 1.6 0.00 0.69 0.69 80 1008.6
20260506184954 19 118 1.6 1.6 0.00 0.69 0.69 80 1008.8
20260506184451 19 171 1.6 3.2 0.00 0.69 0.69 80 1009.0
20260506183948 20 125 3.2 8.0 0.00 0.69 0.69 79 1008.9
20260506183444 19 267 4.8 9.7 0.00 0.69 0.69 79 1008.7
20260506182941 19 262 3.2 8.0 0.00 0.69 0.69 80 1008.7
20260506182438 19 256 12.9 17.7 0.00 0.69 0.69 79 1008.7
20260506181935 19 213 1.6 3.2 0.00 0.69 0.69 80 1009.2
20260506181433 19 89 1.6 3.2 0.00 0.69 0.69 80 1008.9
20260506180930 18 194 3.2 3.2 0.00 0.69 0.69 81 1008.9
20260506180426 19 268 8.0 12.9 0.00 0.69 0.69 80 1009.1
20260506175923 19 76 4.8 4.8 0.00 0.69 0.69 80 1009.1
20260506175420 19 282 6.4 9.7 0.00 0.69 0.69 80 1009.1
20260506174917 18 132 0.0 1.6 0.00 0.69 0.69 82 1009.0
20260506174414 18 201 6.4 8.0 0.00 0.69 0.69 81 1009.1
20260506173911 18 120 0.0 0.0 0.00 0.69 0.69 83 1009.2
20260506173408 18 227 3.2 4.8 0.00 0.69 0.69 83 1009.3
20260506172905 18 183 8.0 8.0 0.00 0.69 0.69 84 1009.0
20260506172402 18 191 6.4 8.0 0.00 0.69 0.69 84 1009.1
20260506171859 18 93 3.2 8.0 0.00 0.69 0.69 85 1009.2
20260506171356 18 134 3.2 3.2 0.00 0.69 0.69 86 1009.1
20260506170854 17 173 3.2 4.8 0.00 0.69 0.69 86 1009.4
20260506170349 17 350 4.8 4.8 0.00 0.69 0.69 86 1009.6
20260506165843 17 239 4.8 4.8 0.00 0.69 0.69 88 1009.4
20260506165341 17 114 1.6 1.6 0.00 0.69 0.69 89 1009.6
20260506164837 17 194 6.4 9.7 0.00 0.69 0.69 90 1009.6
20260506164334 17 250 1.6 3.2 0.00 0.69 0.69 93 1009.4
20260506163832 16 204 6.4 9.7 0.00 0.69 0.69 93 1009.8
20260506163326 17 243 8.0 11.3 0.00 0.69 0.69 94 1009.6
20260506162821 16 201 3.2 4.8 0.00 0.69 0.69 96 1009.4
20260506162319 16 199 6.4 11.3 0.00 0.69 0.69 96 1009.4
20260506161811 16 123 3.2 4.8 0.00 0.69 0.69 96 1009.5
20260506161308 16 112 4.8 4.8 0.00 0.69 0.69 96 1009.8
20260506160805 16 239 1.6 9.7 0.00 0.69 0.69 97 1009.5
20260506160301 16 176 6.4 14.5 0.00 0.69 0.69 97 1009.6
20260506155800 16 135 1.6 1.6 0.00 0.69 0.69 97 1009.7
20260506155256 16 224 4.8 4.8 0.00 0.69 0.69 97 1010.1
20260506153404 16 118 1.6 1.6 0.00 0.69 0.69 97 1010.1
20260506152901 16 229 6.4 9.7 0.00 0.69 0.69 97 1010.1
20260506152358 16 166 3.2 4.8 0.13 0.69 0.69 97 1010.0
20260506151857 16 97 3.2 4.8 0.13 0.69 0.69 97 1010.1
20260506151353 16 150 4.8 9.7 0.18 0.66 0.66 96 1010.2
20260506150851 15 109 1.6 1.6 0.30 0.66 0.66 97 1010.1
20260506150347 15 222 4.8 8.0 0.30 0.64 0.64 97 1010.4
20260506145844 15 100 0.0 0.0 0.30 0.61 0.61 96 1010.2
20260506145340 15 188 0.0 0.0 0.30 0.58 0.58 96 1010.3
20260506144838 16 169 1.6 1.6 0.30 0.56 0.56 96 1010.3
20260506144334 15 169 3.2 4.8 0.48 0.56 0.56 96 1010.6
20260506143833 15 231 1.6 3.2 0.18 0.51 0.51 96 1010.7
20260506143329 16 190 1.6 3.2 0.00 0.48 0.48 96 1010.6
20260506142828 16 104 1.6 1.6 0.00 0.48 0.48 96 1010.5
20260506142325 16 107 0.0 1.6 0.18 0.48 0.48 96 1010.3
20260506141823 16 115 4.8 4.8 0.18 0.48 0.48 95 1010.7
20260506141321 16 96 0.0 0.0 0.13 0.46 0.46 95 1010.6
20260506140819 15 103 0.0 1.6 0.61 0.46 0.46 95 1010.4
20260506140316 15 243 4.8 9.7 0.61 0.43 0.43 95 1010.2
20260506135813 15 106 1.6 3.2 0.48 0.38 0.38 94 1010.4
20260506135309 15 89 0.0 1.6 0.48 0.33 0.33 94 1010.7
20260506134806 15 179 3.2 3.2 0.43 0.30 0.30 93 1010.6
20260506134302 15 123 1.6 1.6 0.30 0.25 0.25 93 1010.7
20260506133759 16 102 1.6 3.2 0.30 0.23 0.23 93 1010.6
20260506133256 16 99 0.0 0.0 0.30 0.20 0.20 92 1010.8
20260506132753 16 89 0.0 0.0 0.36 0.18 0.18 91 1010.9
20260506132250 16 210 4.8 8.0 0.48 0.15 0.15 90 1010.9
20260506131748 16 120 1.6 3.2 0.30 0.13 0.13 89 1010.9
20260506131243 16 99 0.0 1.6 0.00 0.08 0.08 88 1010.6